{"data":{"norad_id":64117,"intl_designator":"2025-110X","name":"STARLINK-34122","alt_names":[],"object_type":"PAYLOAD","status":"ACTIVE","operator":null,"country":"US","launch_date":"2025-05-23","launch_site_code":"AFWTR","launch_vehicle":null,"mission":null,"orbit_class":"UNKNOWN","rcs_meters":null,"size_class":null,"mass_kg":null,"dimensions":null,"purposes":["comms"],"wikipedia_slug":null,"has_3d_model":false,"image_url":null,"decayed_at":null,"tle_current":{"epoch":"2026-05-24T22:40:52.199040Z","epoch_age_seconds":79532,"freshness":"FRESH","line1":"1 64117U 25110X   26144.94504860  .00012168  00000+0  40303-3 0  9991","line2":"2 64117  53.1623  32.1269 0001499  86.0326 274.0847 15.31716190 57550","mean_motion":15.3171619,"eccentricity":0.0001499,"inclination_deg":53.1623,"raan_deg":32.1269,"arg_perigee_deg":86.0326,"mean_anomaly_deg":274.0847,"bstar":0.00040303,"rev_number":5755,"period_min":94.012194256431,"perigee_km":469.66509467596,"apogee_km":471.71837353045,"semimajor_km":6848.8287341032,"source":"CELESTRAK","updated_at":"2026-05-25T13:38:20.268645Z"}}}